TimeMST,TemperatureF,Dew PointF,Humidity,Sea Level PressureIn,VisibilityMPH,Wind Direction,Wind SpeedMPH,Gust SpeedMPH,PrecipitationIn,Events,Conditions,WindDirDegrees,DateUTC
12:15 AM,1.4,-2.2,85,30.47,10.0,Calm,Calm,-,N/A,,Clear,0,2013-01-24 07:15:00
12:35 AM,1.4,-9.4,61,30.47,10.0,Calm,Calm,-,N/A,,Clear,0,2013-01-24 07:35:00
12:55 AM,1.4,-0.4,92,30.47,10.0,Calm,Calm,-,N/A,,Clear,0,2013-01-24 07:55:00
1:15 AM,-0.4,-11.2,60,30.46,10.0,Calm,Calm,-,N/A,,Clear,0,2013-01-24 08:15:00
1:35 AM,-2.2,-2.2,100,30.46,10.0,Calm,Calm,-,N/A,,Clear,0,2013-01-24 08:35:00
1:55 AM,-2.2,-14.8,55,30.46,10.0,Calm,Calm,-,N/A,,Clear,0,2013-01-24 08:55:00
2:15 AM,-0.4,-0.4,100,30.46,10.0,ENE,4.6,-,N/A,,Clear,70,2013-01-24 09:15:00
2:35 AM,-0.4,-14.8,51,30.46,10.0,Calm,Calm,-,N/A,,Clear,0,2013-01-24 09:35:00
2:55 AM,-0.4,-0.4,100,30.46,10.0,Calm,Calm,-,N/A,,Clear,0,2013-01-24 09:55:00
3:15 AM,-0.4,-13.0,55,30.45,10.0,Calm,Calm,-,N/A,,Clear,0,2013-01-24 10:15:00
3:35 AM,-2.2,-9.4,71,30.45,10.0,Calm,Calm,-,N/A,,Clear,0,2013-01-24 10:35:00
3:55 AM,-2.2,-7.6,78,30.45,10.0,Calm,Calm,-,N/A,,Clear,0,2013-01-24 10:55:00
4:15 AM,-2.2,-11.2,66,30.45,10.0,Calm,Calm,-,N/A,,Clear,0,2013-01-24 11:15:00
4:35 AM,-2.2,-5.8,85,30.45,10.0,Calm,Calm,-,N/A,,Clear,0,2013-01-24 11:35:00
4:55 AM,-2.2,-14.8,55,30.44,10.0,Calm,Calm,-,N/A,,Clear,0,2013-01-24 11:55:00
5:15 AM,-4.0,-4.0,100,30.45,10.0,Calm,Calm,-,N/A,,Clear,0,2013-01-24 12:15:00
5:35 AM,-5.8,-25.6,38,30.45,10.0,Calm,Calm,-,N/A,,Clear,0,2013-01-24 12:35:00
5:55 AM,-2.2,-5.8,85,30.44,10.0,Calm,Calm,-,N/A,,Clear,0,2013-01-24 12:55:00
6:15 AM,-2.2,-25.6,32,30.44,10.0,Calm,Calm,-,N/A,,Clear,0,2013-01-24 13:15:00
6:35 AM,-2.2,-18.4,46,30.45,10.0,Calm,Calm,-,N/A,,Clear,0,2013-01-24 13:35:00
6:55 AM,-2.2,-27.4,29,30.45,10.0,Calm,Calm,-,N/A,,Clear,0,2013-01-24 13:55:00
7:15 AM,-2.2,-9999,N/A,30.46,10.0,Calm,Calm,-,N/A,,Clear,0,2013-01-24 14:15:00
7:35 AM,-2.2,-23.8,35,30.46,10.0,Calm,Calm,-,N/A,,Clear,0,2013-01-24 14:35:00
8:15 AM,1.4,-9.4,61,30.46,10.0,Calm,Calm,-,N/A,,Clear,0,2013-01-24 15:15:00
8:35 AM,1.4,-9.4,61,30.46,10.0,Calm,Calm,-,N/A,,Clear,0,2013-01-24 15:35:00
8:55 AM,1.4,-7.6,66,30.46,10.0,Calm,Calm,-,N/A,,Scattered Clouds,0,2013-01-24 15:55:00
9:15 AM,3.2,-14.8,43,30.47,10.0,Calm,Calm,-,N/A,,Mostly Cloudy,0,2013-01-24 16:15:00
9:55 AM,10.4,-14.8,31,30.45,10.0,Calm,Calm,-,N/A,,Clear,0,2013-01-24 16:55:00
10:15 AM,8.6,-9.4,44,30.45,10.0,SSE,4.6,-,N/A,,Clear,150,2013-01-24 17:15:00
10:55 AM,14.0,1.4,57,30.45,10.0,Calm,Calm,-,N/A,,Overcast,0,2013-01-24 17:55:00
11:15 AM,14.0,-0.4,53,30.44,10.0,Calm,Calm,-,N/A,,Mostly Cloudy,0,2013-01-24 18:15:00
11:35 AM,17.6,5.0,58,30.42,10.0,Calm,Calm,-,N/A,,Mostly Cloudy,0,2013-01-24 18:35:00
11:55 AM,19.4,6.8,58,30.41,10.0,Calm,Calm,-,N/A,,Partly Cloudy,0,2013-01-24 18:55:00
12:15 PM,19.4,3.2,49,30.39,10.0,East,3.5,-,N/A,,Clear,100,2013-01-24 19:15:00
12:35 PM,19.4,6.8,58,30.37,10.0,Calm,Calm,-,N/A,,Clear,0,2013-01-24 19:35:00
12:55 PM,21.2,6.8,54,30.36,10.0,Calm,Calm,-,N/A,,Partly Cloudy,0,2013-01-24 19:55:00
1:15 PM,21.2,6.8,54,30.35,10.0,ESE,3.5,-,N/A,,Mostly Cloudy,110,2013-01-24 20:15:00
1:35 PM,23.0,8.6,54,30.34,10.0,East,3.5,-,N/A,,Overcast,100,2013-01-24 20:35:00
2:15 PM,24.8,8.6,50,30.33,10.0,Calm,Calm,-,N/A,,Overcast,0,2013-01-24 21:15:00
2:35 PM,24.8,8.6,50,30.33,10.0,Calm,Calm,-,N/A,,Overcast,0,2013-01-24 21:35:00
2:55 PM,24.8,8.6,50,30.33,10.0,ESE,3.5,-,N/A,,Overcast,110,2013-01-24 21:55:00
3:15 PM,24.8,10.4,54,30.34,10.0,Calm,Calm,-,N/A,,Overcast,0,2013-01-24 22:15:00
3:35 PM,26.6,10.4,51,30.34,10.0,Calm,Calm,-,N/A,,Overcast,0,2013-01-24 22:35:00
4:15 PM,26.6,10.4,51,30.34,10.0,Calm,Calm,-,N/A,,Overcast,0,2013-01-24 23:15:00
4:35 PM,26.6,10.4,51,30.34,10.0,Calm,Calm,-,N/A,,Mostly Cloudy,0,2013-01-24 23:35:00
4:55 PM,26.6,8.6,47,30.34,10.0,SE,3.5,-,N/A,,Mostly Cloudy,140,2013-01-24 23:55:00
5:15 PM,24.8,10.4,54,30.34,10.0,Calm,Calm,-,N/A,,Mostly Cloudy,0,2013-01-25 00:15:00
5:35 PM,24.8,10.4,54,30.34,10.0,Calm,Calm,-,N/A,,Overcast,0,2013-01-25 00:35:00
5:55 PM,26.6,10.4,51,30.34,10.0,Calm,Calm,-,N/A,,Overcast,0,2013-01-25 00:55:00
6:15 PM,26.6,12.2,55,30.35,10.0,Calm,Calm,-,N/A,,Overcast,0,2013-01-25 01:15:00
6:35 PM,26.6,12.2,55,30.35,10.0,South,3.5,-,N/A,,Mostly Cloudy,190,2013-01-25 01:35:00
6:55 PM,24.8,12.2,59,30.36,10.0,Calm,Calm,-,N/A,,Overcast,0,2013-01-25 01:55:00
7:15 PM,24.8,14.0,64,30.34,10.0,Calm,Calm,-,N/A,,Overcast,0,2013-01-25 02:15:00
7:35 PM,26.6,14.0,59,30.35,10.0,Calm,Calm,-,N/A,,Overcast,0,2013-01-25 02:35:00
7:55 PM,26.6,12.2,55,30.35,10.0,Calm,Calm,-,N/A,,Overcast,0,2013-01-25 02:55:00
8:15 PM,26.6,14.0,59,30.35,10.0,Calm,Calm,-,N/A,,Overcast,0,2013-01-25 03:15:00
8:35 PM,24.8,15.8,69,30.34,10.0,Calm,Calm,-,N/A,,Overcast,0,2013-01-25 03:35:00
9:15 PM,24.8,15.8,69,30.36,8.0,Calm,Calm,-,N/A,,Overcast,0,2013-01-25 04:15:00
9:35 PM,24.8,15.8,69,30.36,10.0,Calm,Calm,-,N/A,,Overcast,0,2013-01-25 04:35:00
9:55 PM,24.8,15.8,69,30.36,10.0,Calm,Calm,-,N/A,,Overcast,0,2013-01-25 04:55:00
10:15 PM,24.8,15.8,69,30.36,10.0,Calm,Calm,-,N/A,,Overcast,0,2013-01-25 05:15:00
10:35 PM,24.8,15.8,69,30.36,10.0,Calm,Calm,-,N/A,,Overcast,0,2013-01-25 05:35:00
10:55 PM,24.8,17.6,74,30.34,10.0,Calm,Calm,-,N/A,,Overcast,0,2013-01-25 05:55:00
11:15 PM,24.8,17.6,74,30.36,10.0,Calm,Calm,-,N/A,,Overcast,0,2013-01-25 06:15:00
11:35 PM,24.8,15.8,69,30.36,10.0,SSE,3.5,-,N/A,,Overcast,150,2013-01-25 06:35:00
11:55 PM,23.0,17.6,80,30.37,10.0,Calm,Calm,-,N/A,,Mostly Cloudy,0,2013-01-25 06:55:00